This is the latest recevied weather packets stored in our database for station/object BARLOW-WX. If no packets are shown the sender has not sent any weather packets the latest 10 day(s).
| Time | Temp. | Humidity | Pressure | Rain* | Wind** | Luminosity | Snow |
|---|---|---|---|---|---|---|---|
| 1787598981 | 21.67° C | 58% | 988.6 hPa | 0 mm | - | - | - |
| 1787598083 | 21.67° C | 58% | 988.6 hPa | 0 mm | - | - | - |
| 1787597181 | 21.67° C | 57% | 989.1 hPa | 0 mm | - | - | - |
| 1787596282 | 21.11° C | 57% | 989.1 hPa | 0 mm | - | - | - |
| 1787595381 | 21.11° C | 57% | 989.1 hPa | 0 mm | - | - | - |
| 1787594492 | 21.11° C | 57% | 989.1 hPa | 0 mm | - | - | - |
| 1787593581 | 20.56° C | 61% | 989.4 hPa | 0 mm | - | - | - |
| 1787592681 | 20.56° C | 58% | 989.2 hPa | 0 mm | - | - | - |
| 1787591781 | 20.56° C | 58% | 989.2 hPa | 0 mm | - | - | - |
| 1787590881 | 20.56° C | 58% | 989.2 hPa | 0 mm | - | - | - |
| 1787589981 | 20° C | 63% | 988.7 hPa | 0 mm | - | - | - |
| 1787589082 | 20° C | 60% | 988.4 hPa | 0 mm | - | - | - |
| 1787588179 | 20° C | 60% | 988.4 hPa | 0 mm | - | - | - |
| 1787587281 | 19.44° C | 60% | 988.4 hPa | 0 mm | - | - | - |
| 1787586381 | 19.44° C | 70% | 987.7 hPa | 0 mm | - | - | - |
| 1787585480 | 19.44° C | 68% | 988.7 hPa | 0 mm | - | - | - |
| 1787584581 | 18.33° C | 68% | 988.7 hPa | 0 mm | - | - | - |
| 1787583681 | 17.78° C | 68% | 988.7 hPa | 0 mm | - | - | - |
| 1787582780 | 17.78° C | 74% | 987.9 hPa | 0 mm | - | - | - |
| 1787581880 | 17.22° C | 77% | 989.2 hPa | 0 mm | - | - | - |
| 1787580979 | 16.11° C | 77% | 989.1 hPa | 0 mm | - | - | - |
| 1787580081 | 15.56° C | 72% | 989.4 hPa | 0 mm | - | - | - |
| 1787579181 | 15° C | 80% | 988.5 hPa | 0 mm | - | - | - |
| 1787578280 | 14.44° C | 80% | 988.5 hPa | 0 mm | - | - | - |
| 1787577379 | 13.89° C | 80% | 988.4 hPa | 0 mm | - | - | - |
* Rain latest hour (hover to see other rain measurements)
** Current wind speed in m/s (hover to see current wind gust speed)